Flag for Australia Weather past 2 weeks in Darwin, Northern Territory, Australia

Now
79 °F

Clear.


Feels Like: 82 °F
Forecast: 78 / 92 °F
Wind: 5 mph from Southeast

Location: Darwin Airport

Current Time: Apr 1, 2015 at 3:17:46 AM

Latest Report: Apr 1, 2015 at 2:30 AM


Visibility: 10 mi

Pressure: 29.86 "Hg

Humidity: 89%

Dew point: 75 °F

Location of DarwinLocation

Historic Weather in Darwin — Graph

°F

Darwin temperature yesterday

Maximum temperature yesterday: 93 °F (at 2:00 PM)
Minimum temperature yesterday: 77 °F (at 6:30 AM)
Average temperature yesterday: 84 °F

Past Weeks' High & Low Weather Summary

 TemperatureHumidityPressure
High93 °F (Mar 31, 2:00 PM)100% (Mar 20, 4:30 AM)30.01 "Hg (Mar 20, 4:30 AM)
Low73 °F (Mar 27, 8:00 AM)36% (Mar 23, 1:30 PM)29.68 "Hg (Mar 23, 3:30 PM)
Average83 °F78%29.83 "Hg
* Reported Mar 17 1:30 AM — Apr 1 2:00 AM, Darwin, Weather by CustomWeather, © 2015

Note: Actual official high and low records may vary slightly from our data, if they occured in-between our weather recording intervals... More about our weather records

Advertising

Darwin weather history for previous 24 hours

 ConditionsComfort  
Time TempWeatherWind HumidityBarometerVisibility
2:00 AM
Wed, Apr 1
79 °FClear.5 mph89%29.86 "Hg10 mi
1:30 AM81 °FClear.5 mph84%29.86 "Hg10 mi
1:00 AM79 °FClear.No wind89%29.86 "Hg10 mi
12:30 AM79 °FClear.3 mph89%29.86 "Hg10 mi
12:00 AM79 °FClear.No wind94%29.86 "Hg10 mi
11:30 PM
Tue, Mar 31
79 °FClear.5 mph89%29.86 "Hg10 mi
11:00 PM81 °FClear.5 mph84%29.89 "Hg10 mi
10:30 PM82 °FClear.3 mph84%29.86 "Hg10 mi
10:00 PM82 °FClear.5 mph74%29.86 "Hg10 mi
9:30 PM82 °FClear.6 mph79%29.86 "Hg10 mi
9:00 PM82 °FClear.8 mph74%29.86 "Hg10 mi
8:30 PM84 °FClear.10 mph70%29.86 "Hg10 mi
8:00 PM84 °FClear.8 mph70%29.86 "Hg10 mi
7:30 PM84 °FClear.8 mph70%29.83 "Hg10 mi
7:00 PM86 °FSunny.8 mph66%29.83 "Hg10 mi
6:30 PM88 °FSunny.9 mph59%29.83 "Hg10 mi
6:00 PM90 °FSunny.12 mph55%29.83 "Hg10 mi
5:30 PM90 °FSunny.12 mph49%29.80 "Hg10 mi
5:00 PM90 °FSunny.13 mph49%29.80 "Hg10 mi
4:30 PM91 °FSunny.12 mph46%29.80 "Hg10 mi
4:00 PM93 °FPartly sunny.10 mph47%29.80 "HgN/A
3:30 PM91 °FSunny.9 mph44%29.80 "Hg10 mi
3:00 PM93 °FSunny.8 mph44%29.80 "Hg10 mi
2:30 PM93 °FSunny.6 mph44%29.80 "Hg10 mi
2:00 PM93 °FPartly sunny.13 mph41%29.83 "HgN/A
1:30 PM91 °FPartly sunny.12 mph46%29.83 "HgN/A
1:00 PM91 °FPartly sunny.9 mph44%29.86 "HgN/A
12:30 PM91 °FPartly sunny.8 mph46%29.86 "HgN/A
12:00 PM90 °FPartly sunny.9 mph52%29.89 "HgN/A
11:30 AM90 °FPartly sunny.8 mph55%29.89 "HgN/A
11:00 AM90 °FPartly sunny.9 mph59%29.92 "HgN/A
10:30 AM88 °FPartly sunny.8 mph62%29.92 "HgN/A
10:00 AM86 °FPartly sunny.10 mph62%29.92 "HgN/A
9:30 AM86 °FSunny.10 mph66%29.92 "Hg10 mi
9:00 AM84 °FSunny.8 mph74%29.92 "Hg10 mi
8:30 AM82 °FPartly sunny.7 mph74%29.92 "HgN/A
8:00 AM81 °FPartly sunny.7 mph79%29.92 "HgN/A
7:30 AM79 °FPartly sunny.6 mph89%29.89 "HgN/A
7:00 AM77 °FPassing clouds.7 mph89%29.89 "HgN/A
6:30 AM77 °FPassing clouds.7 mph89%29.89 "HgN/A
6:00 AM79 °FPassing clouds.8 mph89%29.89 "HgN/A
5:30 AM79 °FPassing clouds.7 mph89%29.86 "HgN/A
5:00 AM79 °FPassing clouds.6 mph89%29.86 "HgN/A
4:30 AM79 °FPassing clouds.7 mph89%29.86 "HgN/A
4:00 AM79 °FPassing clouds.7 mph89%29.86 "HgN/A
3:30 AM79 °FPassing clouds.6 mph84%29.86 "HgN/A
3:00 AM79 °FPassing clouds.6 mph84%29.86 "HgN/A
Weather by CustomWeather, © 2015

See weather overviewHow to use our weather pages